| time (UTC) | temp F | wind direction | speed MPH | gust MPH | rain 1hr in | rain 24hr in | rain mn in | humidity % | barometer mb |
| 20260831061009 | 73 | 117 | 1.0 | 2.0 | 0.00 | 0.00 | 0.00 | 80 | 1018.7 |
| 20260831060508 | 73 | 150 | 0.0 | 2.0 | 0.00 | 0.00 | 0.00 | 80 | 1018.6 |
| 20260831060004 | 73 | 135 | 0.0 | 2.0 | 0.00 | 0.00 | 0.00 | 80 | 1018.7 |
| 20260831055458 | 73 | 102 | 1.0 | 2.0 | 0.00 | 0.00 | 0.00 | 80 | 1018.7 |
| 20260831054954 | 74 | 62 | 0.0 | 2.0 | 0.00 | 0.00 | 0.00 | 78 | 1018.6 |
| 20260831054453 | 74 | 117 | 0.0 | 2.0 | 0.00 | 0.00 | 0.00 | 79 | 1018.6 |
| 20260831053947 | 73 | 105 | 1.0 | 2.0 | 0.00 | 0.00 | 0.00 | 77 | 1018.6 |
| 20260831053445 | 73 | 142 | 0.0 | 2.0 | 0.00 | 0.00 | 0.00 | 80 | 1018.6 |
| 20260831052939 | 73 | 129 | 0.0 | 2.0 | 0.00 | 0.00 | 0.00 | 79 | 1018.5 |
| 20260831052434 | 73 | 123 | 0.0 | 2.0 | 0.00 | 0.00 | 0.00 | 79 | 1018.5 |
| 20260831051932 | 73 | 118 | 0.0 | 2.0 | 0.00 | 0.00 | 0.00 | 78 | 1018.5 |
| 20260831051431 | 74 | 139 | 0.0 | 2.0 | 0.00 | 0.00 | 0.00 | 79 | 1018.5 |
| 20260831050926 | 75 | 122 | 1.0 | 2.0 | 0.00 | 0.00 | 0.00 | 77 | 1018.4 |
| 20260831050425 | 76 | 242 | 0.0 | 1.0 | 0.00 | 0.00 | 0.00 | 73 | 1018.6 |
| 20260831045924 | 76 | 89 | 0.0 | 0.0 | 0.00 | 0.00 | 0.00 | 73 | 1018.5 |
| 20260831045423 | 77 | 147 | 0.0 | 2.0 | 0.00 | 0.00 | 0.00 | 71 | 1018.6 |
| 20260831044918 | 77 | 127 | 0.0 | 2.0 | 0.00 | 0.00 | 0.00 | 70 | 1018.3 |
| 20260831044414 | 77 | 129 | 0.0 | 2.0 | 0.00 | 0.00 | 0.00 | 69 | 1018.2 |
| 20260831043910 | 78 | 166 | 0.0 | 1.0 | 0.00 | 0.00 | 0.00 | 70 | 1018.6 |
| 20260831043409 | 78 | 129 | 0.0 | 1.0 | 0.00 | 0.00 | 0.00 | 68 | 1018.3 |
| 20260831042905 | 78 | 123 | 1.0 | 2.0 | 0.00 | 0.00 | 0.00 | 66 | 1018.3 |
| 20260831042404 | 78 | 112 | 0.0 | 1.0 | 0.00 | 0.00 | 0.00 | 66 | 1018.2 |
| 20260831041859 | 79 | 124 | 0.0 | 1.0 | 0.00 | 0.00 | 0.00 | 65 | 1018.5 |
| 20260831041358 | 79 | 25 | 0.0 | 1.0 | 0.00 | 0.00 | 0.00 | 65 | 1018.2 |
| 20260831040853 | 79 | 163 | 2.0 | 3.0 | 0.00 | 0.00 | 0.00 | 64 | 1018.4 |
| 20260831040348 | 79 | 106 | 1.0 | 3.0 | 0.00 | 0.00 | 0.00 | 64 | 1018.3 |
| 20260831035846 | 80 | 34 | 0.0 | 2.0 | 0.00 | 0.00 | 0.00 | 64 | 1018.2 |
| 20260831035345 | 80 | 146 | 0.0 | 2.0 | 0.00 | 0.00 | 0.00 | 64 | 1018.3 |
| 20260831034839 | 80 | 154 | 0.0 | 2.0 | 0.00 | 0.00 | 0.00 | 64 | 1018.3 |
| 20260831034335 | 80 | 164 | 0.0 | 2.0 | 0.00 | 0.00 | 0.00 | 64 | 1018.2 |
| 20260831033825 | 80 | 89 | 0.0 | 0.0 | 0.00 | 0.00 | 0.00 | 64 | 1018.3 |
| 20260831033324 | 80 | 124 | 0.0 | 2.0 | 0.00 | 0.00 | 0.00 | 64 | 1018.3 |
| 20260831032814 | 80 | 103 | 1.0 | 1.0 | 0.00 | 0.00 | 0.00 | 64 | 1018.2 |
| 20260831032308 | 80 | 186 | 0.0 | 2.0 | 0.00 | 0.00 | 0.00 | 63 | 1018.1 |
| 20260831031804 | 80 | 160 | 0.0 | 2.0 | 0.00 | 0.00 | 0.00 | 63 | 1018.3 |
| 20260831031303 | 80 | 212 | 0.0 | 2.0 | 0.00 | 0.00 | 0.00 | 63 | 1018.1 |
| 20260831030758 | 81 | 164 | 0.0 | 2.0 | 0.00 | 0.00 | 0.00 | 65 | 1018.2 |
| 20260831030256 | 81 | 177 | 0.0 | 3.0 | 0.00 | 0.00 | 0.00 | 63 | 1018.1 |
| 20260831025755 | 81 | 277 | 1.0 | 2.0 | 0.00 | 0.00 | 0.00 | 63 | 1018.3 |
| 20260831025250 | 81 | 49 | 0.0 | 2.0 | 0.00 | 0.00 | 0.00 | 61 | 1018.2 |
| 20260831024746 | 82 | 173 | 0.0 | 2.0 | 0.00 | 0.00 | 0.00 | 61 | 1018.1 |
| 20260831024244 | 82 | 130 | 0.0 | 2.0 | 0.00 | 0.00 | 0.00 | 61 | 1018.1 |
| 20260831023743 | 82 | 25 | 0.0 | 1.0 | 0.00 | 0.00 | 0.00 | 61 | 1018.1 |
| 20260831023237 | 82 | 75 | 1.0 | 3.0 | 0.00 | 0.00 | 0.00 | 60 | 1018.1 |
| 20260831022732 | 82 | 195 | 1.0 | 2.0 | 0.00 | 0.00 | 0.00 | 60 | 1018.1 |
| 20260831022226 | 82 | 119 | 0.0 | 2.0 | 0.00 | 0.00 | 0.00 | 60 | 1018.1 |
| 20260831021721 | 82 | 129 | 2.0 | 3.0 | 0.00 | 0.00 | 0.00 | 60 | 1017.9 |
| 20260831021220 | 82 | 255 | 0.0 | 3.0 | 0.00 | 0.00 | 0.00 | 59 | 1018.0 |
| 20260831020717 | 82 | 32 | 0.0 | 3.0 | 0.00 | 0.00 | 0.00 | 60 | 1017.9 |
| 20260831020216 | 83 | 113 | 0.0 | 1.0 | 0.00 | 0.00 | 0.00 | 59 | 1018.0 |
| 20260831015712 | 83 | 121 | 0.0 | 2.0 | 0.00 | 0.00 | 0.00 | 59 | 1017.9 |
| 20260831015207 | 83 | 132 | 1.0 | 3.0 | 0.00 | 0.00 | 0.00 | 59 | 1018.0 |
| 20260831014702 | 83 | 113 | 0.0 | 1.0 | 0.00 | 0.00 | 0.00 | 59 | 1017.9 |
| 20260831014156 | 83 | 125 | 0.0 | 2.0 | 0.00 | 0.00 | 0.00 | 59 | 1017.7 |
| 20260831013653 | 84 | 137 | 1.0 | 2.0 | 0.00 | 0.00 | 0.00 | 58 | 1017.9 |
| 20260831013152 | 83 | 72 | 1.0 | 2.0 | 0.00 | 0.00 | 0.00 | 58 | 1017.8 |
| 20260831012647 | 84 | 128 | 1.0 | 2.0 | 0.00 | 0.00 | 0.00 | 58 | 1017.8 |
| 20260831012143 | 84 | 103 | 0.0 | 1.0 | 0.00 | 0.00 | 0.00 | 59 | 1017.6 |
| 20260831011642 | 84 | 31 | 0.0 | 2.0 | 0.00 | 0.00 | 0.00 | 59 | 1017.4 |
| 20260831011138 | 85 | 131 | 0.0 | 2.0 | 0.00 | 0.00 | 0.00 | 57 | 1017.5 |
| 20260831010633 | 85 | 75 | 0.0 | 1.0 | 0.00 | 0.00 | 0.00 | 56 | 1017.5 |
| 20260831010128 | 85 | 129 | 0.0 | 0.0 | 0.00 | 0.00 | 0.00 | 55 | 1017.3 |
| 20260831005623 | 86 | 148 | 0.0 | 2.0 | 0.00 | 0.00 | 0.00 | 56 | 1017.3 |
| 20260831005118 | 86 | 299 | 0.0 | 1.0 | 0.00 | 0.00 | 0.00 | 54 | 1017.3 |
| 20260831004614 | 87 | 297 | 0.0 | 1.0 | 0.00 | 0.00 | 0.00 | 53 | 1017.2 |
| 20260831004109 | 87 | 309 | 0.0 | 0.0 | 0.00 | 0.00 | 0.00 | 52 | 1017.2 |
| 20260831003605 | 87 | 108 | 1.0 | 2.0 | 0.00 | 0.00 | 0.00 | 52 | 1017.1 |
| 20260831003101 | 87 | 116 | 0.0 | 1.0 | 0.00 | 0.00 | 0.00 | 51 | 1017.1 |
| 20260831002559 | 87 | 89 | 0.0 | 1.0 | 0.00 | 0.00 | 0.00 | 51 | 1017.5 |
| 20260831002054 | 88 | 269 | 0.0 | 2.0 | 0.00 | 0.00 | 0.00 | 50 | 1017.1 |
| 20260831001550 | 88 | 22 | 0.0 | 4.0 | 0.00 | 0.00 | 0.00 | 50 | 1017.4 |
| 20260831001046 | 89 | 125 | 2.0 | 2.0 | 0.00 | 0.00 | 0.00 | 49 | 1017.5 |
| 20260831000543 | 89 | 89 | 0.0 | 2.0 | 0.00 | 0.00 | 0.00 | 48 | 1017.2 |
| 20260831000042 | 89 | 100 | 2.0 | 3.0 | 0.00 | 0.00 | 0.00 | 47 | 1017.5 |
| 20260830235541 | 89 | 130 | 0.0 | 3.0 | 0.00 | 0.00 | 0.00 | 47 | 1017.5 |
| 20260830235036 | 90 | 63 | 1.0 | 2.0 | 0.00 | 0.00 | 0.00 | 47 | 1017.3 |
| 20260830234531 | 90 | 162 | 0.0 | 2.0 | 0.00 | 0.00 | 0.00 | 47 | 1017.4 |
| 20260830234026 | 91 | 89 | 0.0 | 3.0 | 0.00 | 0.00 | 0.00 | 45 | 1017.6 |
| 20260830233521 | 91 | 93 | 2.0 | 7.0 | 0.00 | 0.00 | 0.00 | 44 | 1017.4 |
| 20260830233018 | 91 | 162 | 0.0 | 2.0 | 0.00 | 0.00 | 0.00 | 44 | 1017.3 |
| 20260830232513 | 91 | 166 | 2.0 | 6.0 | 0.00 | 0.00 | 0.00 | 43 | 1017.6 |
| 20260830232009 | 92 | 342 | 1.0 | 5.0 | 0.00 | 0.00 | 0.00 | 43 | 1017.5 |
| 20260830231505 | 92 | 245 | 1.0 | 4.0 | 0.00 | 0.00 | 0.00 | 44 | 1017.6 |
| 20260830231004 | 92 | 23 | 2.0 | 4.0 | 0.00 | 0.00 | 0.00 | 42 | 1017.3 |
| 20260830230459 | 93 | 71 | 2.0 | 4.0 | 0.00 | 0.00 | 0.00 | 43 | 1017.4 |
| 20260830225958 | 93 | 89 | 0.0 | 4.0 | 0.00 | 0.00 | 0.00 | 42 | 1017.3 |
| 20260830225455 | 93 | 95 | 3.0 | 5.0 | 0.00 | 0.00 | 0.00 | 42 | 1017.6 |
| 20260830224954 | 94 | 63 | 0.0 | 4.0 | 0.00 | 0.00 | 0.00 | 41 | 1017.4 |
| 20260830224452 | 94 | 128 | 1.0 | 6.0 | 0.00 | 0.00 | 0.00 | 41 | 1017.4 |
| 20260830223949 | 96 | 154 | 0.0 | 3.0 | 0.00 | 0.00 | 0.00 | 40 | 1017.6 |
| 20260830223446 | 96 | 208 | 2.0 | 3.0 | 0.00 | 0.00 | 0.00 | 39 | 1017.3 |
| 20260830222945 | 98 | 23 | 0.0 | 2.0 | 0.00 | 0.00 | 0.00 | 35 | 1017.3 |
| 20260830222440 | 98 | 218 | 0.0 | 2.0 | 0.00 | 0.00 | 0.00 | 38 | 1017.2 |
| 20260830221936 | 96 | 72 | 0.0 | 5.0 | 0.00 | 0.00 | 0.00 | 37 | 1017.4 |
| 20260830221432 | 98 | 156 | 2.0 | 3.0 | 0.00 | 0.00 | 0.00 | 36 | 1017.4 |
| 20260830220927 | 98 | 219 | 1.0 | 2.0 | 0.00 | 0.00 | 0.00 | 36 | 1017.3 |
| 20260830220422 | 96 | 207 | 2.0 | 4.0 | 0.00 | 0.00 | 0.00 | 36 | 1017.3 |
| 20260830215919 | 98 | 178 | 1.0 | 3.0 | 0.00 | 0.00 | 0.00 | 36 | 1017.4 |
| 20260830215414 | 98 | 154 | 1.0 | 2.0 | 0.00 | 0.00 | 0.00 | 35 | 1017.2 |
| 20260830214909 | 98 | 111 | 0.0 | 4.0 | 0.00 | 0.00 | 0.00 | 34 | 1017.2 |
| 20260830214404 | 98 | 229 | 0.0 | 7.0 | 0.00 | 0.00 | 0.00 | 36 | 1017.3 |
| 20260830213859 | 101 | 109 | 2.0 | 4.0 | 0.00 | 0.00 | 0.00 | 33 | 1017.3 |
| 20260830213354 | 98 | 166 | 0.0 | 3.0 | 0.00 | 0.00 | 0.00 | 36 | 1017.4 |
| 20260830212850 | 98 | 152 | 1.0 | 3.0 | 0.00 | 0.00 | 0.00 | 35 | 1017.5 |
| 20260830212345 | 98 | 188 | 1.0 | 3.0 | 0.00 | 0.00 | 0.00 | 34 | 1017.4 |
| 20260830211844 | 97 | 128 | 1.0 | 7.0 | 0.00 | 0.00 | 0.00 | 36 | 1017.6 |
| 20260830211339 | 96 | 178 | 2.0 | 4.0 | 0.00 | 0.00 | 0.00 | 36 | 1017.5 |
| 20260830210835 | 98 | 186 | 0.0 | 5.0 | 0.00 | 0.00 | 0.00 | 35 | 1017.7 |
| 20260830210333 | 99 | 299 | 0.0 | 4.0 | 0.00 | 0.00 | 0.00 | 37 | 1017.5 |
| 20260830205832 | 98 | 241 | 1.0 | 5.0 | 0.00 | 0.00 | 0.00 | 34 | 1017.5 |
| 20260830205331 | 98 | 248 | 2.0 | 4.0 | 0.00 | 0.00 | 0.00 | 35 | 1017.7 |
| 20260830204826 | 99 | 234 | 1.0 | 5.0 | 0.00 | 0.00 | 0.00 | 37 | 1017.7 |
| 20260830204325 | 100 | 204 | 1.0 | 5.0 | 0.00 | 0.00 | 0.00 | 34 | 1017.8 |
| 20260830203821 | 98 | 205 | 1.0 | 4.0 | 0.00 | 0.00 | 0.00 | 35 | 1017.4 |
| 20260830203317 | 99 | 153 | 0.0 | 4.0 | 0.00 | 0.00 | 0.00 | 34 | 1017.7 |
| 20260830202816 | 99 | 275 | 0.0 | 3.0 | 0.00 | 0.00 | 0.00 | 36 | 1017.7 |
| 20260830202312 | 98 | 248 | 4.0 | 6.0 | 0.00 | 0.00 | 0.00 | 36 | 1017.6 |
| 20260830201807 | 97 | 137 | 2.0 | 6.0 | 0.00 | 0.00 | 0.00 | 36 | 1017.9 |
| 20260830201301 | 98 | 93 | 2.0 | 4.0 | 0.00 | 0.00 | 0.00 | 35 | 1018.0 |
| 20260830200756 | 98 | 99 | 0.0 | 6.0 | 0.00 | 0.00 | 0.00 | 37 | 1017.9 |
| 20260830200255 | 102 | 232 | 2.0 | 6.0 | 0.00 | 0.00 | 0.00 | 32 | 1018.0 |
| 20260830195751 | 98 | 233 | 0.0 | 5.0 | 0.00 | 0.00 | 0.00 | 39 | 1018.1 |
| 20260830195251 | 95 | 157 | 0.0 | 6.0 | 0.00 | 0.00 | 0.00 | 39 | 1018.3 |
| 20260830194749 | 97 | 182 | 1.0 | 5.0 | 0.00 | 0.00 | 0.00 | 37 | 1018.3 |
| 20260830194243 | 99 | 197 | 0.0 | 4.0 | 0.00 | 0.00 | 0.00 | 38 | 1018.1 |
| 20260830193743 | 98 | 235 | 3.0 | 8.0 | 0.00 | 0.00 | 0.00 | 35 | 1018.3 |
| 20260830193237 | 99 | 253 | 1.0 | 5.0 | 0.00 | 0.00 | 0.00 | 37 | 1018.4 |
| 20260830192733 | 99 | 149 | 1.0 | 5.0 | 0.00 | 0.00 | 0.00 | 39 | 1018.5 |
| 20260830192228 | 97 | 258 | 2.0 | 6.0 | 0.00 | 0.00 | 0.00 | 37 | 1018.3 |
| 20260830191724 | 97 | 112 | 3.0 | 6.0 | 0.00 | 0.00 | 0.00 | 35 | 1018.6 |
| 20260830191223 | 101 | 238 | 2.0 | 4.0 | 0.00 | 0.00 | 0.00 | 33 | 1018.5 |
| 20260830190719 | 101 | 223 | 2.0 | 3.0 | 0.00 | 0.00 | 0.00 | 36 | 1018.8 |
| 20260830190214 | 99 | 209 | 0.0 | 3.0 | 0.00 | 0.00 | 0.00 | 36 | 1018.7 |
| 20260830185712 | 96 | 183 | 1.0 | 6.0 | 0.00 | 0.00 | 0.00 | 37 | 1018.7 |
| 20260830185208 | 97 | 198 | 3.0 | 4.0 | 0.00 | 0.00 | 0.00 | 37 | 1018.7 |
| 20260830184708 | 97 | 82 | 0.0 | 6.0 | 0.00 | 0.00 | 0.00 | 41 | 1018.8 |
| 20260830184207 | 97 | 110 | 2.0 | 5.0 | 0.00 | 0.00 | 0.00 | 35 | 1018.9 |
| 20260830183702 | 95 | 184 | 3.0 | 5.0 | 0.00 | 0.00 | 0.00 | 35 | 1019.0 |
| 20260830183157 | 95 | 155 | 0.0 | 9.0 | 0.00 | 0.00 | 0.00 | 38 | 1018.7 |
| 20260830182652 | 98 | 248 | 2.0 | 3.0 | 0.00 | 0.00 | 0.00 | 38 | 1018.8 |
| 20260830182149 | 95 | 252 | 2.0 | 4.0 | 0.00 | 0.00 | 0.00 | 37 | 1018.7 |
| 20260830181644 | 94 | 32 | 2.0 | 4.0 | 0.00 | 0.00 | 0.00 | 37 | 1019.1 |
| 20260830181139 | 95 | 207 | 3.0 | 6.0 | 0.00 | 0.00 | 0.00 | 38 | 1019.1 |
| 20260830180638 | 94 | 244 | 2.0 | 4.0 | 0.00 | 0.00 | 0.00 | 38 | 1018.9 |
| 20260830180133 | 95 | 222 | 4.0 | 6.0 | 0.00 | 0.00 | 0.00 | 39 | 1019.1 |
| 20260830175631 | 96 | 253 | 1.0 | 4.0 | 0.00 | 0.00 | 0.00 | 42 | 1019.2 |
| 20260830175127 | 95 | 158 | 3.0 | 5.0 | 0.00 | 0.00 | 0.00 | 38 | 1019.1 |
| 20260830174622 | 94 | 141 | 2.0 | 5.0 | 0.00 | 0.00 | 0.00 | 38 | 1019.3 |
| 20260830174118 | 91 | 113 | 2.0 | 8.0 | 0.00 | 0.00 | 0.00 | 41 | 1019.6 |
| 20260830173612 | 92 | 89 | 0.0 | 7.0 | 0.00 | 0.00 | 0.00 | 39 | 1019.4 |
| 20260830173108 | 93 | 224 | 2.0 | 3.0 | 0.00 | 0.00 | 0.00 | 39 | 1019.5 |
| 20260830172605 | 93 | 138 | 0.0 | 6.0 | 0.00 | 0.00 | 0.00 | 39 | 1019.5 |
| 20260830172101 | 92 | 247 | 2.0 | 6.0 | 0.00 | 0.00 | 0.00 | 41 | 1019.6 |
| 20260830171555 | 93 | 140 | 3.0 | 5.0 | 0.00 | 0.00 | 0.00 | 39 | 1020.0 |
| 20260830171051 | 91 | 246 | 2.0 | 4.0 | 0.00 | 0.00 | 0.00 | 40 | 1020.0 |
| 20260830170550 | 91 | 213 | 2.0 | 3.0 | 0.00 | 0.00 | 0.00 | 44 | 1019.8 |
| 20260830170049 | 91 | 252 | 2.0 | 5.0 | 0.00 | 0.00 | 0.00 | 42 | 1020.2 |
| 20260830165545 | 91 | 91 | 3.0 | 5.0 | 0.00 | 0.00 | 0.00 | 43 | 1020.1 |
| 20260830165040 | 91 | 167 | 2.0 | 4.0 | 0.00 | 0.00 | 0.00 | 42 | 1020.4 |
| 20260830164536 | 90 | 174 | 3.0 | 6.0 | 0.00 | 0.00 | 0.00 | 44 | 1020.2 |
| 20260830164032 | 91 | 236 | 4.0 | 5.0 | 0.00 | 0.00 | 0.00 | 44 | 1020.4 |
| 20260830163529 | 89 | 253 | 4.0 | 8.0 | 0.00 | 0.00 | 0.00 | 44 | 1020.3 |
| 20260830163028 | 89 | 237 | 3.0 | 8.0 | 0.00 | 0.00 | 0.00 | 45 | 1020.2 |
| 20260830162524 | 88 | 285 | 2.0 | 7.0 | 0.00 | 0.00 | 0.00 | 46 | 1020.3 |
| 20260830162019 | 89 | 244 | 4.0 | 7.0 | 0.00 | 0.00 | 0.00 | 45 | 1020.2 |
| 20260830161514 | 88 | 203 | 3.0 | 8.0 | 0.00 | 0.00 | 0.00 | 46 | 1020.3 |
| 20260830161008 | 87 | 266 | 2.0 | 9.0 | 0.00 | 0.00 | 0.00 | 48 | 1020.3 |
| 20260830160504 | 87 | 314 | 4.0 | 7.0 | 0.00 | 0.00 | 0.00 | 46 | 1020.3 |
| 20260830155959 | 88 | 213 | 2.0 | 9.0 | 0.00 | 0.00 | 0.00 | 48 | 1020.2 |
| 20260830155455 | 87 | 99 | 5.0 | 12.0 | 0.00 | 0.00 | 0.00 | 48 | 1020.0 |
| 20260830154950 | 87 | 190 | 1.0 | 7.0 | 0.00 | 0.00 | 0.00 | 49 | 1020.2 |
| 20260830154446 | 87 | 268 | 2.0 | 9.0 | 0.00 | 0.00 | 0.00 | 47 | 1020.3 |
| 20260830153942 | 87 | 177 | 2.0 | 8.0 | 0.00 | 0.00 | 0.00 | 49 | 1019.9 |
| 20260830153438 | 88 | 264 | 5.0 | 6.0 | 0.00 | 0.00 | 0.00 | 48 | 1019.6 |
| 20260830152937 | 88 | 176 | 3.0 | 4.0 | 0.00 | 0.00 | 0.00 | 48 | 1019.7 |
| 20260830152432 | 86 | 151 | 3.0 | 5.0 | 0.00 | 0.00 | 0.00 | 50 | 1019.7 |
| 20260830151925 | 85 | 265 | 2.0 | 5.0 | 0.00 | 0.00 | 0.00 | 50 | 1019.6 |
| 20260830151420 | 86 | 166 | 3.0 | 5.0 | 0.00 | 0.00 | 0.00 | 50 | 1019.8 |
| 20260830150915 | 86 | 217 | 3.0 | 7.0 | 0.00 | 0.00 | 0.00 | 51 | 1019.9 |
| 20260830150414 | 85 | 278 | 2.0 | 6.0 | 0.00 | 0.00 | 0.00 | 52 | 1019.9 |
| 20260830145908 | 84 | 89 | 0.0 | 6.0 | 0.00 | 0.00 | 0.00 | 54 | 1019.9 |
| 20260830145403 | 83 | 318 | 5.0 | 7.0 | 0.00 | 0.00 | 0.00 | 55 | 1019.7 |
| 20260830144858 | 83 | 176 | 3.0 | 5.0 | 0.00 | 0.00 | 0.00 | 55 | 1019.9 |
| 20260830144355 | 83 | 274 | 4.0 | 5.0 | 0.00 | 0.00 | 0.00 | 56 | 1019.9 |
| 20260830143849 | 83 | 214 | 0.0 | 6.0 | 0.00 | 0.00 | 0.00 | 58 | 1019.7 |
| 20260830143344 | 83 | 241 | 0.0 | 3.0 | 0.00 | 0.00 | 0.00 | 63 | 1019.7 |
| 20260830142843 | 82 | 124 | 0.0 | 5.0 | 0.00 | 0.00 | 0.00 | 60 | 1019.8 |
| 20260830142338 | 81 | 330 | 0.0 | 5.0 | 0.00 | 0.00 | 0.00 | 63 | 1019.7 |
| 20260830141833 | 80 | 230 | 0.0 | 3.0 | 0.00 | 0.00 | 0.00 | 64 | 1019.7 |
| 20260830141329 | 79 | 130 | 3.0 | 4.0 | 0.00 | 0.00 | 0.00 | 67 | 1019.8 |
| 20260830140824 | 77 | 83 | 1.0 | 6.0 | 0.00 | 0.00 | 0.00 | 69 | 1019.9 |
| 20260830140319 | 77 | 315 | 1.0 | 4.0 | 0.00 | 0.00 | 0.00 | 71 | 1019.8 |
| 20260830135813 | 76 | 186 | 2.0 | 2.0 | 0.00 | 0.00 | 0.00 | 75 | 1019.7 |
| 20260830135309 | 76 | 51 | 0.0 | 3.0 | 0.00 | 0.00 | 0.00 | 74 | 1019.5 |
| 20260830134804 | 75 | 234 | 1.0 | 4.0 | 0.00 | 0.00 | 0.00 | 74 | 1019.6 |
| 20260830134304 | 75 | 109 | 1.0 | 7.0 | 0.00 | 0.00 | 0.00 | 74 | 1020.0 |
| 20260830133800 | 75 | 211 | 0.0 | 5.0 | 0.00 | 0.00 | 0.00 | 75 | 1019.8 |
| 20260830133255 | 75 | 256 | 0.0 | 5.0 | 0.00 | 0.00 | 0.00 | 75 | 1020.0 |
| 20260830132751 | 74 | 126 | 0.0 | 2.0 | 0.00 | 0.00 | 0.00 | 75 | 1019.9 |
| 20260830132247 | 74 | 195 | 3.0 | 4.0 | 0.00 | 0.00 | 0.00 | 75 | 1020.0 |
| 20260830131745 | 73 | 174 | 2.0 | 4.0 | 0.00 | 0.00 | 0.00 | 76 | 1020.1 |
| 20260830131240 | 73 | 168 | 1.0 | 3.0 | 0.00 | 0.00 | 0.00 | 78 | 1020.1 |
| 20260830130735 | 72 | 103 | 1.0 | 5.0 | 0.00 | 0.00 | 0.00 | 79 | 1020.2 |
| 20260830130230 | 71 | 148 | 1.0 | 3.0 | 0.00 | 0.00 | 0.00 | 80 | 1020.0 |
| 20260830125724 | 71 | 139 | 0.0 | 2.0 | 0.00 | 0.00 | 0.00 | 81 | 1020.1 |
| 20260830125219 | 71 | 169 | 0.0 | 1.0 | 0.00 | 0.00 | 0.00 | 82 | 1020.0 |
| 20260830124716 | 70 | 172 | 1.0 | 2.0 | 0.00 | 0.00 | 0.00 | 83 | 1020.1 |
| 20260830124212 | 70 | 146 | 2.0 | 2.0 | 0.00 | 0.00 | 0.00 | 83 | 1019.9 |
| 20260830123709 | 70 | 142 | 0.0 | 2.0 | 0.00 | 0.00 | 0.00 | 83 | 1019.8 |
| 20260830123205 | 70 | 145 | 1.0 | 2.0 | 0.00 | 0.00 | 0.00 | 84 | 1019.8 |
| 20260830122702 | 70 | 151 | 1.0 | 2.0 | 0.00 | 0.00 | 0.00 | 84 | 1020.0 |
| 20260830122157 | 70 | 180 | 0.0 | 0.0 | 0.00 | 0.00 | 0.00 | 84 | 1019.9 |
| 20260830121653 | 71 | 180 | 1.0 | 2.0 | 0.00 | 0.00 | 0.00 | 81 | 1019.8 |
| 20260830121152 | 71 | 144 | 1.0 | 3.0 | 0.00 | 0.00 | 0.00 | 82 | 1019.6 |
| 20260830120647 | 71 | 154 | 2.0 | 2.0 | 0.00 | 0.00 | 0.00 | 81 | 1019.7 |
| 20260830120143 | 70 | 162 | 3.0 | 3.0 | 0.00 | 0.00 | 0.00 | 81 | 1020.0 |
| 20260830115639 | 70 | 199 | 0.0 | 3.0 | 0.00 | 0.00 | 0.00 | 82 | 1019.7 |
| 20260830115134 | 69 | 89 | 0.0 | 2.0 | 0.00 | 0.00 | 0.00 | 83 | 1019.8 |
| 20260830114631 | 69 | 124 | 0.0 | 2.0 | 0.00 | 0.00 | 0.00 | 85 | 1019.6 |
| 20260830114131 | 68 | 45 | 0.0 | 2.0 | 0.00 | 0.00 | 0.00 | 88 | 1019.7 |
| 20260830113626 | 67 | 115 | 0.0 | 2.0 | 0.00 | 0.00 | 0.00 | 89 | 1019.8 |
| 20260830113120 | 67 | 135 | 0.0 | 2.0 | 0.00 | 0.00 | 0.00 | 91 | 1019.8 |
| 20260830112612 | 67 | 144 | 0.0 | 2.0 | 0.00 | 0.00 | 0.00 | 90 | 1019.8 |
| 20260830112108 | 67 | 147 | 0.0 | 2.0 | 0.00 | 0.00 | 0.00 | 89 | 1019.8 |
| 20260830111603 | 68 | 129 | 0.0 | 1.0 | 0.00 | 0.00 | 0.00 | 88 | 1019.6 |
| 20260830111059 | 68 | 110 | 0.0 | 2.0 | 0.00 | 0.00 | 0.00 | 88 | 1019.5 |
| 20260830110558 | 68 | 105 | 1.0 | 2.0 | 0.00 | 0.00 | 0.00 | 87 | 1019.5 |
| 20260830110054 | 68 | 89 | 0.0 | 1.0 | 0.00 | 0.00 | 0.00 | 86 | 1019.2 |
| 20260830105549 | 68 | 101 | 0.0 | 2.0 | 0.00 | 0.00 | 0.00 | 87 | 1019.4 |
| 20260830105045 | 69 | 89 | 0.0 | 2.0 | 0.00 | 0.00 | 0.00 | 86 | 1019.3 |
| 20260830104542 | 69 | 97 | 1.0 | 2.0 | 0.00 | 0.00 | 0.00 | 86 | 1019.3 |
| 20260830104037 | 69 | 89 | 0.0 | 2.0 | 0.00 | 0.00 | 0.00 | 85 | 1019.6 |
| 20260830103532 | 69 | 157 | 0.0 | 3.0 | 0.00 | 0.00 | 0.00 | 85 | 1019.5 |
| 20260830103031 | 70 | 32 | 0.0 | 1.0 | 0.00 | 0.00 | 0.00 | 84 | 1019.6 |
| 20260830102531 | 70 | 142 | 0.0 | 2.0 | 0.00 | 0.00 | 0.00 | 84 | 1019.4 |
| 20260830102027 | 70 | 175 | 0.0 | 2.0 | 0.00 | 0.00 | 0.00 | 84 | 1019.4 |
| 20260830101523 | 69 | 126 | 0.0 | 2.0 | 0.00 | 0.00 | 0.00 | 84 | 1019.3 |
| 20260830101022 | 69 | 189 | 0.0 | 3.0 | 0.00 | 0.00 | 0.00 | 85 | 1019.2 |
| 20260830100521 | 69 | 132 | 0.0 | 2.0 | 0.00 | 0.00 | 0.00 | 85 | 1019.2 |
| 20260830100021 | 69 | 50 | 0.0 | 2.0 | 0.00 | 0.00 | 0.00 | 86 | 1019.1 |
| 20260830095516 | 69 | 124 | 0.0 | 1.0 | 0.00 | 0.00 | 0.00 | 86 | 1019.2 |
| 20260830095012 | 69 | 91 | 0.0 | 1.0 | 0.00 | 0.00 | 0.00 | 86 | 1019.1 |
| 20260830094509 | 69 | 102 | 0.0 | 1.0 | 0.00 | 0.00 | 0.00 | 86 | 1019.2 |
| 20260830094003 | 69 | 99 | 0.0 | 2.0 | 0.00 | 0.00 | 0.00 | 86 | 1019.3 |
| 20260830093458 | 70 | 148 | 1.0 | 2.0 | 0.00 | 0.00 | 0.00 | 85 | 1019.3 |
| 20260830092954 | 70 | 166 | 0.0 | 3.0 | 0.00 | 0.00 | 0.00 | 85 | 1019.2 |
| 20260830092449 | 70 | 135 | 0.0 | 1.0 | 0.00 | 0.00 | 0.00 | 85 | 1019.4 |
| 20260830091946 | 70 | 142 | 0.0 | 2.0 | 0.00 | 0.00 | 0.00 | 85 | 1019.4 |
| 20260830091446 | 71 | 193 | 0.0 | 1.0 | 0.00 | 0.00 | 0.00 | 84 | 1019.3 |
| 20260830090945 | 71 | 142 | 0.0 | 1.0 | 0.00 | 0.00 | 0.00 | 83 | 1019.3 |
| 20260830090440 | 71 | 146 | 0.0 | 2.0 | 0.00 | 0.00 | 0.00 | 83 | 1019.4 |
| 20260830085935 | 71 | 160 | 0.0 | 3.0 | 0.00 | 0.00 | 0.00 | 83 | 1019.4 |
| 20260830085430 | 71 | 216 | 1.0 | 7.0 | 0.00 | 0.00 | 0.00 | 83 | 1019.5 |
| 20260830084926 | 71 | 221 | 0.0 | 4.0 | 0.00 | 0.00 | 0.00 | 82 | 1019.3 |
| 20260830084421 | 71 | 173 | 1.0 | 3.0 | 0.00 | 0.00 | 0.00 | 82 | 1019.4 |
| 20260830083916 | 71 | 121 | 1.0 | 4.0 | 0.00 | 0.00 | 0.00 | 82 | 1019.1 |
| 20260830083412 | 71 | 164 | 0.0 | 9.0 | 0.00 | 0.00 | 0.00 | 82 | 1019.2 |
| 20260830082911 | 71 | 109 | 2.0 | 4.0 | 0.00 | 0.00 | 0.00 | 83 | 1019.6 |
| 20260830082407 | 71 | 144 | 1.0 | 4.0 | 0.00 | 0.00 | 0.00 | 83 | 1019.7 |
| 20260830081902 | 71 | 199 | 0.0 | 2.0 | 0.00 | 0.00 | 0.00 | 83 | 1019.9 |
| 20260830081357 | 71 | 119 | 0.0 | 2.0 | 0.00 | 0.00 | 0.00 | 83 | 1019.6 |
| 20260830080856 | 71 | 82 | 0.0 | 2.0 | 0.00 | 0.00 | 0.00 | 83 | 1019.6 |
| 20260830080353 | 71 | 84 | 0.0 | 3.0 | 0.00 | 0.00 | 0.00 | 83 | 1020.0 |
| 20260830075851 | 71 | 129 | 0.0 | 2.0 | 0.00 | 0.00 | 0.00 | 83 | 1019.8 |
| 20260830075347 | 71 | 53 | 0.0 | 2.0 | 0.00 | 0.00 | 0.00 | 83 | 1019.8 |
| 20260830074842 | 71 | 105 | 1.0 | 1.0 | 0.00 | 0.00 | 0.00 | 82 | 1019.8 |
| 20260830074337 | 71 | 50 | 0.0 | 2.0 | 0.00 | 0.00 | 0.00 | 82 | 1019.8 |
| 20260830073833 | 71 | 147 | 0.0 | 2.0 | 0.00 | 0.00 | 0.00 | 82 | 1019.7 |
| 20260830073329 | 71 | 120 | 1.0 | 2.0 | 0.00 | 0.00 | 0.00 | 82 | 1019.9 |
| 20260830072824 | 72 | 142 | 0.0 | 1.0 | 0.00 | 0.00 | 0.00 | 81 | 1019.8 |
| 20260830072320 | 72 | 135 | 0.0 | 2.0 | 0.00 | 0.00 | 0.00 | 81 | 1019.8 |
| 20260830071814 | 72 | 106 | 1.0 | 2.0 | 0.00 | 0.00 | 0.00 | 81 | 1019.6 |
| 20260830071308 | 72 | 50 | 0.0 | 2.0 | 0.00 | 0.00 | 0.00 | 81 | 1019.7 |
| 20260830070807 | 72 | 102 | 2.0 | 2.0 | 0.00 | 0.00 | 0.00 | 81 | 1019.9 |
| 20260830070302 | 72 | 89 | 0.0 | 2.0 | 0.00 | 0.00 | 0.00 | 81 | 1020.0 |
| 20260830065801 | 72 | 120 | 1.0 | 2.0 | 0.00 | 0.00 | 0.00 | 81 | 1019.9 |
| 20260830065255 | 72 | 80 | 0.0 | 2.0 | 0.00 | 0.00 | 0.00 | 80 | 1019.8 |
| 20260830064754 | 72 | 62 | 0.0 | 2.0 | 0.00 | 0.00 | 0.00 | 80 | 1019.8 |
| 20260830064249 | 72 | 126 | 0.0 | 2.0 | 0.00 | 0.00 | 0.00 | 82 | 1019.9 |
| 20260830063743 | 72 | 166 | 0.0 | 3.0 | 0.00 | 0.00 | 0.00 | 81 | 1019.6 |
| 20260830063243 | 72 | 142 | 0.0 | 2.0 | 0.00 | 0.00 | 0.00 | 82 | 1019.8 |
| 20260830062738 | 72 | 257 | 1.0 | 2.0 | 0.00 | 0.00 | 0.00 | 82 | 1019.8 |
| 20260830062232 | 72 | 66 | 1.0 | 3.0 | 0.00 | 0.00 | 0.00 | 81 | 1019.8 |
| 20260830061732 | 71 | 61 | 0.0 | 2.0 | 0.00 | 0.00 | 0.00 | 82 | 1019.9 |
| 20260830061228 | 71 | 130 | 0.0 | 2.0 | 0.00 | 0.00 | 0.00 | 85 | 1019.9 |